Location: Fenile
(46.0500°N, 9.5500°E)
Time: 16:34:58
(UTC+00:00)

ERS-2 - Pass Details

Date: 03 March 2021
Orbit: 492 x 496 km, 98.6° (Epoch: 11 April)

Event Time Altitude Azimuth Distance (km) Brightness Sun altitude
Rises 18:22:40 0° 12° (NNE) 2,593 5.7 -13.2°
Reaches altitude 10° 18:24:45 10° 12° (NNE) 1,706 4.8 -13.6°
Maximum altitude 18:28:24 78° 287° (WNW) 513 2.2 -14.2°
Drops below altitude 10° 18:32:03 10° 200° (SSW) 1,692 5.0 -14.8°
Sets 18:34:06 0° 199° (SSW) 2,570 5.9 -15.2°
